Torna al catalogo

COSMOS 1275 DEB

AttivoPO
NORAD 13471·DEBRIS·🇷🇺 Russia

Lanciato Jun 4, 1981 da Plesetsk Cosmodrome

Loading…

Prossimi Passaggi (prossime 24 ore)

TLE

AggiornatoSource: Space-Track

Epoca: Sep 13, 2026, 13:58 UTC

1 13471U 81053FT  26256.58238778  .00001228  00000-0  76862-3 0  9997
2 13471  82.8051 117.2365 0051903  53.4975 336.1619 14.03221092239937

Traccia COSMOS 1275 DEB in tempo reale con AllMySat

Download on the App Store